Tracking 19638 objects as of 20-Apr-2019
HD Live streaming from Space Station
objects crossing your sky now

COSMOS 1823 DEB

Track COSMOS 1823 DEB now!
10-day predictions


NORAD ID: 18910
Int'l Code: 1987-020AU
Perigee: 1,465.9 km
Apogee: 1,496.2 km
Inclination: 73.7 °
Period: 115.4 minutes
Semi major axis: 7852 km
RCS: 0.0485 m2 (small)
Launch date: February 20, 1987
Source: Commonwealth of Independent States (former USSR) (CIS)
Launch site: PLESETSK MISSILE AND SPACE COMPLEX (PKMTR)

Note: This is SATELLITE DEBRIS
aabbcc
Your satellite tracking list
Your tracking list is empty




NASA's NSSDC Master Catalog

Two Line Element Set (TLE):
1 18910U 87020AU  19109.53006997  .00000092  00000-0  73737-3 0  9996
2 18910  73.6762 244.5375 0019283 146.7712 287.6410 12.47751697424651
Source of the keplerian elements: AFSPC